TimeCST,TemperatureF,Dew PointF,Humidity,Sea Level PressureIn,VisibilityMPH,Wind Direction,Wind SpeedMPH,Gust SpeedMPH,PrecipitationIn,Events,Conditions,WindDirDegrees,DateUTC
12:53 AM,42.1,23.0,47,30.22,10.0,Calm,Calm,-,N/A,,Clear,0,2013-03-07 06:53:00
1:53 AM,42.1,24.1,49,30.23,10.0,ESE,5.8,-,N/A,,Clear,120,2013-03-07 07:53:00
2:53 AM,43.0,24.1,47,30.22,10.0,ESE,3.5,-,N/A,,Clear,110,2013-03-07 08:53:00
3:53 AM,39.9,24.1,53,30.22,10.0,Calm,Calm,-,N/A,,Clear,0,2013-03-07 09:53:00
4:53 AM,39.9,23.0,51,30.22,10.0,Calm,Calm,-,N/A,,Scattered Clouds,0,2013-03-07 10:53:00
5:53 AM,39.0,23.0,53,30.22,10.0,ESE,6.9,-,N/A,,Clear,110,2013-03-07 11:53:00
6:53 AM,37.9,23.0,55,30.23,10.0,ESE,4.6,-,N/A,,Partly Cloudy,120,2013-03-07 12:53:00
7:53 AM,44.1,25.0,47,30.25,10.0,SSE,5.8,-,N/A,,Clear,150,2013-03-07 13:53:00
8:53 AM,48.9,26.1,41,30.25,10.0,South,9.2,19.6,N/A,,Clear,170,2013-03-07 14:53:00
9:53 AM,53.1,25.0,34,30.25,10.0,SSE,9.2,18.4,N/A,,Partly Cloudy,160,2013-03-07 15:53:00
10:53 AM,57.0,24.1,28,30.24,10.0,SSE,13.8,21.9,N/A,,Partly Cloudy,160,2013-03-07 16:53:00
11:53 AM,60.1,24.1,25,30.22,10.0,South,10.4,23.0,N/A,,Clear,170,2013-03-07 17:53:00
12:53 PM,63.0,24.1,23,30.19,10.0,SSE,10.4,20.7,N/A,,Partly Cloudy,150,2013-03-07 18:53:00
1:53 PM,64.0,24.1,22,30.16,10.0,South,13.8,20.7,N/A,,Partly Cloudy,190,2013-03-07 19:53:00
2:53 PM,64.9,25.0,22,30.13,10.0,South,12.7,25.3,N/A,,Clear,170,2013-03-07 20:53:00
3:53 PM,64.9,25.0,22,30.12,10.0,South,12.7,21.9,N/A,,Clear,170,2013-03-07 21:53:00
4:53 PM,64.9,26.1,23,30.12,10.0,South,10.4,19.6,N/A,,Clear,180,2013-03-07 22:53:00
5:53 PM,63.0,25.0,24,30.12,10.0,South,9.2,17.3,N/A,,Partly Cloudy,170,2013-03-07 23:53:00
6:53 PM,60.1,26.1,27,30.13,10.0,SSE,6.9,-,N/A,,Partly Cloudy,150,2013-03-08 00:53:00
7:53 PM,55.9,28.0,34,30.13,10.0,SE,4.6,-,N/A,,Mostly Cloudy,130,2013-03-08 01:53:00
8:53 PM,55.0,28.0,35,30.14,10.0,SE,5.8,-,N/A,,Scattered Clouds,140,2013-03-08 02:53:00
9:53 PM,55.0,28.0,35,30.14,10.0,SE,9.2,-,N/A,,Partly Cloudy,140,2013-03-08 03:53:00
10:53 PM,55.0,28.0,35,30.14,10.0,SSE,9.2,16.1,N/A,,Mostly Cloudy,150,2013-03-08 04:53:00
11:53 PM,55.0,27.0,34,30.14,10.0,SSE,6.9,-,N/A,,Scattered Clouds,160,2013-03-08 05:53:00